Theta_e
333 337 338 337 337 338 335 331 332 332 330 328 327 325 324 322 321 322 324 340 357 359 359 362 360 360 359 356 357 355 354 355 354 354 354 353 353 351 350 350 349 349 347 346 345 345 346 347 348 349 349 350 350 350 350 352 353 353 353 353 353 352 351 351 352 353 352 351 352 353 353 351 351 351 351 351 351 352 351 349 349 348 348 351 350 350
332 336 338 338 336 335 333 331 330 330 329 329 327 325 325 322 323 325 322 333 354 357 355 361 359 359 358 356 358 355 355 356 354 355 355 353 353 351 351 351 350 349 347 347 346 345 345 346 347 348 349 349 350 349 349 351 353 352 352 352 352 351 351 352 352 353 352 351 351 352 352 351 351 352 352 351 351 352 352 350 350 349 348 349 351 351
333 334 335 335 334 331 330 330 329 329 329 329 327 325 323 323 324 326 324 329 349 356 355 359 358 356 358 357 357 356 356 354 352 354 353 353 353 352 351 351 351 350 349 349 347 345 344 345 347 348 349 350 349 349 349 350 351 351 352 351 350 351 352 353 352 353 352 351 351 351 351 351 351 352 352 352 352 353 353 351 351 350 349 348 349 351
333 335 335 333 330 329 330 330 329 329 328 328 328 324 322 324 321 321 323 329 346 356 355 359 357 357 361 360 358 357 355 355 352 352 353 354 353 351 351 350 350 350 350 350 348 346 343 343 346 347 348 349 349 349 348 350 350 350 351 350 350 352 352 353 353 353 352 350 351 352 351 352 352 353 352 352 353 353 354 353 352 352 351 349 349 351
332 334 332 330 328 329 330 329 329 328 327 328 328 325 323 325 321 320 322 325 331 339 351 357 351 354 361 360 361 359 356 356 354 353 354 354 353 352 351 350 350 350 350 350 349 348 344 342 345 346 347 348 348 349 348 349 350 350 351 350 350 352 352 352 353 353 352 351 352 352 351 350 351 352 352 354 354 355 354 354 354 353 351 351 350 350
330 329 327 328 329 327 327 329 329 327 326 325 327 327 326 326 325 324 322 320 317 320 340 352 343 349 359 358 361 359 358 359 355 355 354 354 354 352 351 350 350 350 349 350 349 348 346 342 343 345 346 347 348 348 348 348 349 349 350 350 350 351 352 353 353 353 352 351 351 351 350 348 349 350 351 353 354 354 354 354 353 353 352 352 352 352
328 325 325 326 328 327 327 327 327 327 324 322 327 329 326 326 325 323 320 317 315 319 341 353 345 347 351 351 361 360 359 361 358 356 355 353 354 352 352 350 350 349 349 349 348 348 346 343 342 344 345 346 347 348 347 348 348 349 349 350 350 350 351 352 353 353 352 352 350 350 350 348 348 349 350 352 351 352 352 352 352 352 352 351 353 354
324 322 324 325 324 325 326 325 326 327 323 322 328 326 325 324 322 321 319 316 318 328 349 357 352 350 347 348 358 360 360 362 361 359 356 354 354 353 353 350 350 349 348 348 348 348 347 343 342 343 345 345 346 347 347 347 348 349 349 350 350 349 350 352 352 352 352 351 351 351 350 348 349 348 349 350 350 350 350 350 351 351 351 351 352 355
320 319 324 324 322 323 325 327 327 326 324 325 327 325 324 323 322 323 320 317 322 329 338 347 347 348 347 352 358 360 360 361 361 361 357 356 354 353 354 351 350 350 348 348 347 348 347 344 343 343 344 345 346 346 346 347 347 348 349 349 349 349 350 352 352 352 351 350 350 350 349 348 348 348 347 346 347 349 350 350 350 350 350 350 351 353
317 318 321 320 321 323 325 327 325 324 326 325 325 324 323 323 325 326 322 318 318 317 322 333 338 340 342 347 353 357 355 357 360 359 357 356 355 354 353 352 351 349 349 348 347 347 346 345 344 344 344 345 345 346 346 346 347 347 349 349 349 349 349 351 352 351 351 351 350 350 348 348 348 348 345 345 346 347 349 350 349 350 349 348 349 350
316 319 321 319 320 321 322 324 323 324 325 323 324 324 322 326 326 332 337 325 314 316 320 326 332 337 336 339 347 352 353 356 358 358 357 356 355 355 354 352 351 350 350 348 347 346 345 345 345 344 344 344 345 345 345 345 346 347 348 349 349 348 348 350 351 351 351 350 350 348 347 347 347 347 345 344 344 346 348 349 349 349 349 347 347 349
318 319 319 318 318 316 317 322 320 320 321 321 326 323 319 326 325 326 334 322 311 321 329 327 329 334 333 334 344 352 354 354 356 355 357 356 356 355 354 353 352 350 350 350 348 347 346 346 345 344 344 344 344 345 344 344 345 347 348 348 348 348 348 350 351 350 350 350 349 348 347 347 347 346 345 344 344 345 346 347 348 348 348 347 347 348
318 318 316 316 317 314 315 318 315 318 321 319 325 323 317 322 322 319 324 321 316 323 326 323 323 327 331 333 339 351 352 352 353 354 353 354 356 356 354 354 353 351 350 349 349 348 347 347 345 345 344 344 344 344 343 344 344 346 347 348 348 348 348 349 350 350 350 349 348 348 347 347 346 345 344 344 343 344 344 346 347 347 348 348 346 347
317 317 316 314 316 315 313 314 312 315 319 317 321 322 318 320 319 320 325 322 319 319 319 318 318 320 322 325 334 343 347 350 350 351 352 351 355 355 354 354 352 353 351 350 350 348 349 347 346 345 344 344 344 344 344 343 343 345 347 347 347 348 348 349 350 350 349 348 348 347 347 346 345 344 344 343 342 343 343 343 345 346 347 347 346 347
315 315 316 314 313 314 314 313 313 313 314 317 321 322 322 324 321 321 324 320 317 319 317 316 316 316 315 322 332 331 336 348 349 349 350 350 353 354 353 354 353 353 352 351 350 350 349 348 346 345 344 344 344 344 344 344 343 344 346 347 347 347 347 348 349 349 349 349 348 347 347 347 346 343 342 342 342 343 342 342 342 342 343 345 345 344
315 315 314 314 312 313 314 314 314 314 315 318 323 321 318 321 320 321 323 324 322 319 318 316 318 322 322 324 332 328 328 339 346 350 351 350 352 354 354 355 353 353 352 351 351 350 350 348 346 346 345 345 344 344 344 344 343 344 345 347 347 347 347 348 348 349 349 349 348 347 347 346 346 344 342 342 341 341 342 341 340 340 340 342 341 342
316 317 314 314 315 313 313 314 314 314 317 320 320 317 316 316 317 318 322 327 322 315 320 321 316 323 327 322 328 333 333 337 342 348 349 350 353 354 356 355 353 353 352 351 351 351 351 349 347 347 346 345 344 344 345 344 343 344 344 346 347 346 347 348 348 349 348 349 348 347 347 346 346 345 343 342 340 341 341 341 339 339 340 341 339 339
313 317 314 313 315 314 313 315 315 313 314 317 316 315 318 319 321 321 320 323 321 317 323 321 314 320 324 321 327 336 337 341 342 343 343 347 352 354 356 355 353 353 351 351 351 350 351 349 347 347 346 346 345 344 344 344 344 343 344 345 346 346 347 347 348 348 348 349 348 348 347 346 346 345 344 343 342 343 344 342 340 339 341 341 340 340
311 315 316 313 313 314 313 315 316 314 313 315 315 316 320 321 323 323 318 318 320 320 322 321 318 322 324 324 327 330 333 342 346 344 344 344 347 351 354 355 354 353 351 352 351 350 350 350 348 348 347 346 346 344 345 344 345 344 343 344 346 346 346 346 347 348 348 348 348 348 347 346 345 344 344 345 345 345 345 344 342 341 340 341 340 342
315 315 316 316 313 313 316 315 314 314 314 315 314 314 318 321 319 319 319 320 320 321 323 323 322 325 328 328 326 325 332 343 346 349 348 345 344 345 349 354 354 353 352 351 351 350 350 350 349 348 348 347 346 345 345 344 344 345 343 344 345 346 346 346 347 348 348 348 348 347 348 347 345 344 344 344 345 345 344 343 342 341 341 340 341 342
319 317 316 317 315 314 316 315 313 314 314 315 314 311 313 317 318 319 321 319 319 323 326 325 323 327 332 328 322 323 334 345 347 347 346 347 347 344 345 352 352 353 354 350 350 350 350 350 350 348 348 348 347 346 345 345 345 345 344 344 345 346 346 346 346 347 348 348 348 347 347 348 347 346 344 343 343 343 344 344 342 341 342 341 342 343
317 318 318 318 314 313 315 314 312 314 314 312 313 312 312 313 316 323 327 322 319 322 323 322 322 327 331 325 320 324 337 346 345 342 342 347 350 347 342 348 352 351 352 352 350 350 349 350 351 349 348 348 347 347 346 346 346 345 345 345 345 345 346 347 347 346 348 348 348 348 347 347 347 346 346 344 343 342 342 343 343 343 343 343 343 345
318 317 316 317 314 312 312 312 311 313 314 311 310 311 311 312 313 318 322 321 320 321 324 325 323 326 331 323 317 328 341 345 344 342 341 343 348 349 342 344 352 351 351 351 349 350 350 349 350 350 349 348 347 348 346 346 346 345 346 346 345 346 346 347 348 347 348 348 348 348 348 347 347 346 346 345 345 343 342 341 342 343 344 344 344 345
318 316 313 315 317 314 311 314 313 311 311 311 310 310 310 311 311 311 314 318 321 322 323 329 330 331 331 321 316 330 343 343 342 343 341 340 343 347 346 345 350 350 351 351 350 350 351 349 350 350 349 348 347 347 347 347 347 346 346 346 347 347 346 346 348 348 349 349 349 349 349 349 348 347 347 346 345 344 344 342 341 342 344 345 345 345
314 316 318 317 318 318 316 318 318 312 310 310 310 310 310 310 310 312 315 320 328 325 318 325 334 332 326 317 320 335 342 341 342 342 341 339 338 342 347 351 353 353 353 351 349 350 350 352 353 351 349 349 348 348 347 348 347 347 347 347 348 348 347 347 347 349 349 350 350 350 350 350 349 349 349 348 347 346 345 344 343 342 342 343 345 345
313 318 323 319 315 315 315 316 317 314 311 310 310 309 310 310 309 312 316 319 328 327 317 320 327 326 319 314 323 339 341 340 342 340 338 338 336 337 341 346 350 354 357 358 356 353 352 351 352 352 351 349 348 349 348 347 347 348 348 348 348 348 349 348 348 349 349 350 351 351 351 351 350 350 350 349 349 348 347 346 345 344 343 343 343 344
321 321 325 326 322 320 320 320 319 315 312 311 311 310 309 310 310 312 315 317 322 321 319 325 327 322 316 314 324 340 341 339 342 341 337 336 335 334 336 339 343 346 349 353 357 361 364 361 355 352 350 350 349 349 349 349 349 348 349 349 349 350 350 349 349 349 350 350 351 352 352 352 351 351 351 350 350 349 349 348 347 346 345 344 344 345
324 319 320 324 323 320 320 320 316 312 311 310 310 310 310 311 311 311 313 316 317 315 320 331 330 320 314 315 328 340 338 337 340 341 338 336 334 334 334 335 337 339 341 345 347 352 359 364 364 357 351 350 351 351 350 350 349 349 350 350 350 351 351 351 351 350 351 351 351 353 353 353 353 352 352 351 351 351 350 349 349 347 346 346 345 345
321 317 314 314 316 314 313 313 312 311 311 310 310 311 310 311 311 311 312 314 314 314 318 323 323 318 314 320 334 338 335 336 339 339 338 335 333 333 333 334 335 336 337 339 341 344 346 350 357 358 355 351 351 351 351 351 351 351 351 351 352 352 352 353 352 352 352 352 352 353 353 353 354 353 353 353 352 351 351 351 349 348 348 347 346 346
321 321 317 313 314 315 312 312 312 311 311 311 311 311 310 311 311 310 311 312 313 316 316 316 319 319 318 327 337 336 333 335 336 336 335 333 333 332 332 333 334 334 335 336 337 339 340 342 346 349 351 352 353 354 352 352 353 352 353 352 353 354 354 354 354 354 353 354 353 353 353 354 354 354 354 353 353 353 352 351 351 350 349 348 347 347
317 319 320 318 317 317 315 313 312 312 312 311 311 311 311 310 311 311 311 312 315 319 318 318 320 321 323 333 337 334 332 332 333 334 334 332 332 333 332 333 333 333 334 334 335 336 337 338 341 343 346 348 350 353 353 353 353 352 353 354 353 355 355 355 355 356 354 355 355 354 354 354 354 354 354 354 354 354 353 352 352 351 350 349 348 348
317 318 321 321 319 317 315 313 313 313 311 310 312 313 312 311 311 312 311 312 319 327 327 323 323 325 330 333 334 333 332 331 331 333 333 332 332 332 332 333 333 332 332 333 333 334 334 335 337 340 343 346 349 350 351 353 355 354 353 355 354 356 357 357 358 357 357 356 356 356 356 356 356 356 355 355 354 354 354 353 353 352 351 350 350 350
321 320 320 319 319 319 316 314 315 313 310 313 316 313 311 312 311 311 314 319 327 333 333 329 328 330 332 331 331 332 332 331 331 332 332 332 332 331 332 333 333 332 332 332 332 332 333 333 336 338 341 344 346 349 350 351 353 355 354 355 355 356 357 359 359 358 359 358 357 358 358 357 357 357 356 356 356 355 355 354 353 353 353 352 352 351
322 322 320 318 319 321 319 317 315 312 312 315 316 312 310 312 312 315 322 328 331 331 330 330 331 330 329 328 329 330 330 330 330 330 331 331 332 331 331 332 332 332 332 331 331 331 331 333 334 336 338 342 344 346 348 350 350 352 354 355 355 355 356 359 360 360 360 360 360 359 360 359 359 359 358 358 358 357 356 355 355 354 354 353 353 352
322 321 320 319 318 319 322 320 315 313 314 313 312 312 313 313 315 322 329 331 329 327 327 327 328 328 326 325 325 326 328 328 327 327 328 329 330 331 330 329 330 330 331 331 331 331 331 333 334 335 337 340 342 343 345 346 348 350 351 354 355 355 356 358 359 361 361 361 360 360 360 360 360 360 360 359 358 358 358 356 356 355 354 354 354 353
323 322 320 320 318 318 319 318 314 313 314 313 315 318 319 320 322 326 330 331 327 325 325 325 326 326 325 323 323 323 324 327 328 328 327 326 327 330 330 328 328 328 329 330 330 330 331 332 333 334 336 339 340 342 343 344 345 348 351 352 353 354 355 357 358 359 360 360 359 360 360 361 361 361 360 360 360 359 359 358 357 356 356 355 354 354
321 322 319 317 317 316 317 317 316 314 314 318 321 322 320 320 321 323 327 330 326 322 323 324 324 325 323 322 322 321 322 327 330 327 326 325 325 327 328 328 327 327 327 328 328 329 330 331 333 334 336 338 339 341 342 342 344 348 351 353 354 353 353 355 355 356 357 357 358 358 357 358 360 361 361 361 361 360 359 358 358 357 356 356 354 354
318 319 318 316 317 317 316 317 318 317 317 320 322 321 318 316 318 320 323 327 325 321 321 323 324 324 323 322 322 321 324 331 332 326 324 326 325 324 326 327 326 326 326 326 327 328 329 331 332 334 336 337 338 339 341 342 343 346 350 353 356 355 355 355 354 354 354 355 356 357 357 356 356 359 361 362 361 361 360 359 358 358 357 356 355 355
319 321 320 318 319 319 316 317 319 317 318 321 321 320 316 315 317 320 321 324 324 319 318 321 323 324 324 323 321 322 325 329 328 324 322 325 326 325 325 326 326 325 325 326 327 328 329 330 332 334 335 336 336 336 339 341 343 346 348 351 354 357 359 359 359 358 357 355 354 355 357 357 355 356 360 362 362 361 361 360 359 359 358 357 356 355
322 324 321 317 319 319 317 318 318 316 318 321 321 319 316 315 318 320 320 323 322 316 316 320 321 323 324 323 322 322 323 325 324 322 322 323 324 325 324 324 325 325 325 326 326 327 329 330 331 334 334 334 334 335 337 340 343 346 348 350 352 357 360 359 359 360 360 359 358 357 357 357 358 358 362 364 363 362 362 361 360 359 358 357 357 356
322 323 321 317 318 318 318 319 318 316 319 321 319 318 316 316 318 319 319 321 319 315 316 319 320 321 322 323 322 322 322 322 321 321 321 321 322 323 324 323 324 324 324 325 326 328 329 330 330 332 333 332 332 333 334 337 340 343 346 347 349 352 352 350 351 352 355 357 360 360 360 359 360 362 364 365 364 363 362 362 360 360 358 358 357 356
321 322 320 317 317 317 318 319 318 317 319 319 318 318 317 317 319 319 318 317 317 317 317 318 319 319 320 321 321 321 320 319 319 319 320 320 321 322 324 324 323 323 324 325 326 328 329 329 330 331 331 330 331 331 331 333 335 337 340 343 345 345 344 344 346 347 350 354 358 362 363 362 362 364 365 365 364 363 363 362 361 360 359 359 358 357
320 321 319 318 318 317 317 317 317 317 317 316 316 318 318 319 319 318 316 316 317 318 318 317 317 318 317 318 318 318 318 318 319 319 320 320 320 321 323 323 323 323 323 325 326 327 328 328 329 329 329 329 329 329 329 330 332 333 336 338 339 339 339 341 343 345 347 352 356 361 363 364 363 364 365 366 365 364 364 363 361 360 359 359 358 357
317 319 321 320 319 319 318 317 317 319 318 315 315 317 319 318 316 315 316 317 317 317 316 316 315 315 315 315 315 316 317 317 318 319 319 320 321 320 320 322 323 322 322 324 326 327 327 328 329 328 327 327 328 327 327 328 330 331 333 333 334 335 338 339 342 344 347 351 355 358 361 364 364 364 365 365 365 365 363 362 361 361 360 359 359 357
316 318 320 319 318 318 318 317 316 317 316 315 315 316 316 315 314 315 316 317 316 315 315 314 313 313 313 313 313 315 316 317 317 318 318 320 320 320 320 321 322 322 321 323 325 326 326 328 328 326 326 326 326 326 327 327 328 329 330 330 331 334 336 338 340 343 347 350 353 355 359 362 363 363 365 365 365 365 364 363 362 361 360 359 359 358
316 316 316 317 316 315 314 314 313 313 314 315 314 313 312 313 315 314 314 313 312 312 312 311 311 312 312 312 313 314 316 317 317 317 318 319 320 319 318 319 321 322 322 322 325 325 325 327 327 326 325 326 325 325 326 326 326 327 328 328 329 332 334 336 339 342 346 349 351 353 356 360 363 363 365 365 365 365 365 364 362 362 360 360 360 359
314 314 315 315 315 314 314 315 316 316 316 315 313 311 311 313 313 312 311 311 310 310 310 310 310 311 311 311 313 314 315 316 316 316 317 318 319 319 318 319 320 322 322 323 324 325 324 326 327 326 326 325 325 324 325 325 325 326 326 327 328 331 333 335 338 342 345 348 349 352 356 360 362 363 364 365 366 365 365 364 363 362 361 361 360 359
314 313 315 316 315 314 314 314 314 314 313 311 310 310 310 311 311 309 309 309 309 308 309 309 310 310 311 312 312 313 314 315 316 316 316 317 319 319 318 319 320 321 323 323 323 323 323 325 327 326 325 325 325 324 324 324 325 325 325 325 328 329 331 334 338 342 345 346 349 352 356 358 361 363 364 365 365 365 365 364 363 363 361 361 361 360
313 313 315 315 314 314 313 312 312 311 312 312 312 312 311 310 310 309 309 308 308 309 310 310 310 310 311 312 312 312 313 314 315 316 316 317 318 318 318 319 320 321 323 323 323 322 322 324 326 325 325 324 324 323 323 324 324 324 324 324 326 328 329 332 337 341 343 345 348 352 354 356 359 362 363 365 365 365 365 365 365 364 362 362 362 362
312 315 315 314 314 314 313 313 314 313 313 313 312 311 311 310 310 309 309 309 309 310 310 310 310 311 311 311 311 311 312 313 314 315 316 316 317 318 319 319 320 321 322 324 323 322 322 324 325 325 323 323 323 323 323 323 323 324 323 324 325 327 328 332 336 340 341 342 345 349 351 353 357 360 363 364 365 365 366 365 365 365 364 363 363 362
314 316 315 314 316 315 313 313 314 314 314 313 311 310 310 310 310 309 309 309 309 310 310 310 310 311 311 311 311 312 312 312 313 314 315 316 316 317 318 319 319 320 321 323 324 322 323 325 325 324 322 321 322 322 322 322 322 322 323 323 325 326 328 331 334 337 338 338 340 345 348 350 353 358 362 364 365 366 366 365 365 364 364 363 363 363
Wind_Speed
3 2 3 4 4 4 4 4 6 6 3 1 2 3 4 4 3 3 4 4 10 9 9 12 12 12 10 11 15 16 16 16 15 15 14 14 14 13 13 14 16 15 15 18 24 29 32 32 32 32 31 33 32 32 33 33 34 34 32 31 30 30 31 31 30 28 28 28 26 24 23 23 22 20 20 19 18 17 16 16 15 15 15 14 14 13
3 4 5 5 6 6 5 4 5 5 4 3 3 4 4 4 4 5 5 5 9 8 8 10 10 10 9 10 13 15 17 18 18 18 18 17 15 14 14 15 16 14 13 16 19 25 30 31 32 33 31 32 32 31 33 35 35 35 34 33 32 32 33 32 31 29 29 29 28 26 26 25 23 21 21 20 19 17 16 16 16 16 16 15 14 14
1 4 6 7 6 4 4 4 4 5 5 4 3 3 4 3 2 5 6 4 7 7 5 7 9 8 7 9 12 16 18 18 18 19 19 19 17 14 15 15 14 14 13 15 16 20 27 30 32 32 31 33 33 33 34 35 36 35 34 34 33 33 34 33 32 30 30 30 28 27 26 25 24 21 20 19 18 17 16 16 17 17 16 16 15 14
2 5 7 8 5 3 5 5 4 4 4 4 4 3 5 2 3 3 6 3 3 6 4 5 6 4 4 7 11 15 16 13 14 17 16 16 17 17 17 15 15 16 15 16 16 17 22 28 30 31 31 33 34 33 34 35 35 35 36 36 35 34 34 34 33 32 31 29 28 26 24 24 23 21 21 21 20 19 18 17 17 17 17 16 16 15
5 7 6 6 4 4 5 5 4 3 3 5 5 5 7 3 4 5 6 5 2 6 4 4 1 2 6 9 10 10 11 10 11 13 13 14 15 15 15 16 16 17 16 17 17 17 19 24 29 31 32 33 33 34 35 36 36 35 37 37 37 36 35 35 34 33 32 30 28 25 21 20 19 19 21 22 21 22 21 20 19 18 18 17 17 16
8 8 3 4 6 6 5 6 4 4 3 5 6 8 9 6 4 7 6 4 4 5 4 6 2 5 5 9 10 8 9 10 9 12 14 14 14 13 14 15 16 16 16 16 18 17 17 22 27 30 32 33 33 35 36 38 38 37 37 38 38 37 36 35 35 34 34 32 30 27 23 21 20 19 22 24 24 24 24 22 20 19 18 18 17 17
4 4 4 5 6 6 6 7 5 6 3 4 5 8 9 7 7 9 5 1 2 5 3 6 5 3 3 8 10 9 10 10 9 11 14 14 14 14 14 15 15 15 15 15 16 17 17 21 25 28 31 34 35 36 38 38 39 38 38 38 38 38 37 36 35 36 35 33 32 31 28 27 26 24 26 28 27 25 23 22 21 20 19 19 19 18
2 1 2 4 4 4 4 5 5 7 5 5 6 6 7 7 7 9 6 4 4 4 3 2 3 2 2 6 7 8 9 9 10 13 14 14 15 15 15 15 16 16 16 15 16 17 18 22 26 29 32 36 37 37 37 37 38 39 39 39 39 39 38 37 36 37 36 35 34 33 31 30 29 28 27 28 27 25 23 22 22 20 20 19 19 19
1 1 2 4 4 3 4 7 8 8 6 9 9 6 6 6 7 6 6 5 2 2 3 5 1 2 3 3 4 7 9 11 15 17 16 16 16 16 16 16 17 17 16 16 17 18 19 23 29 32 34 36 37 37 38 38 39 39 39 39 39 39 38 38 37 38 37 36 35 34 33 31 31 29 26 24 25 26 26 25 23 22 21 20 19 19
1 3 5 5 3 4 6 8 8 8 7 10 6 4 4 4 5 4 4 4 1 2 5 6 4 2 4 2 5 6 9 13 16 15 15 16 17 16 15 16 17 15 15 16 17 17 21 26 31 33 34 35 36 37 38 39 39 39 39 39 39 40 40 39 38 39 38 37 36 35 34 33 32 29 25 22 23 26 27 27 26 24 22 21 20 20
3 4 2 2 0 5 6 6 6 8 10 8 1 1 2 0 2 1 1 2 3 1 6 9 8 6 3 3 5 8 12 16 15 11 12 15 16 17 15 15 16 15 14 15 15 17 22 28 31 32 33 34 35 36 37 38 38 39 39 39 40 40 40 40 40 39 39 38 37 37 36 35 33 31 27 24 24 26 28 28 28 26 24 22 21 20
5 5 1 1 4 4 3 3 2 3 4 3 0 1 1 3 1 2 4 2 3 4 7 7 8 7 4 5 6 11 16 17 15 13 15 18 18 17 15 15 15 15 15 15 15 15 18 21 24 29 32 33 35 35 36 37 37 38 39 40 40 40 40 40 40 40 39 39 38 37 37 36 35 33 31 28 27 28 29 30 30 28 26 24 22 21
3 3 3 2 5 10 6 3 5 6 5 4 2 3 2 2 1 1 2 1 4 5 6 5 6 4 5 6 7 13 16 16 14 14 16 19 19 17 15 15 14 14 15 15 14 14 14 15 19 25 30 32 34 35 36 38 37 38 39 40 40 40 40 40 40 41 40 39 39 38 38 38 36 34 34 32 30 30 30 30 30 29 28 27 25 23
1 2 7 6 5 7 5 4 4 4 5 4 1 4 4 2 2 2 3 1 2 5 5 2 4 2 4 5 8 13 14 15 15 14 15 18 19 18 17 15 14 14 15 14 14 14 14 14 18 24 29 31 33 36 38 38 39 38 38 40 41 41 42 41 41 41 41 40 40 40 39 39 38 36 36 35 33 32 32 30 29 29 29 28 27 25
1 1 5 6 3 5 5 2 2 4 3 4 3 4 3 4 4 3 3 2 3 3 3 2 1 3 3 4 7 9 8 9 11 12 13 13 15 15 14 14 14 14 14 14 14 15 15 17 21 25 28 31 33 36 37 38 39 39 39 41 41 41 42 42 41 42 42 42 41 40 39 39 39 39 38 37 35 34 33 32 30 29 29 29 27 25
2 2 5 3 2 4 6 4 3 1 2 4 1 3 1 1 3 2 3 5 4 1 1 1 2 4 5 2 7 9 8 6 7 9 9 11 11 12 12 13 15 15 15 14 15 16 16 19 23 26 28 31 33 35 37 38 39 40 40 41 43 43 42 42 42 42 43 43 42 41 40 40 40 40 38 37 36 34 33 33 32 31 30 29 27 26
2 2 5 5 3 7 7 4 4 6 1 2 4 1 5 4 4 1 2 0 4 3 1 2 2 4 3 3 12 17 14 12 9 6 7 10 12 13 13 15 15 15 16 16 16 16 17 18 23 26 29 31 33 35 38 40 42 42 42 42 43 43 42 43 43 43 43 43 42 42 42 41 41 40 39 39 37 35 34 33 33 32 31 30 28 27
1 3 4 6 4 7 8 3 6 9 3 1 2 4 6 2 3 2 1 2 4 3 3 1 4 3 5 3 10 18 18 17 15 11 8 7 10 14 15 16 17 18 18 18 17 17 16 18 22 27 30 32 35 37 40 41 42 43 43 44 43 42 42 43 43 43 43 42 42 42 42 41 41 41 41 40 39 37 35 34 34 34 34 33 30 28
1 2 4 5 4 6 7 6 4 7 8 3 1 4 4 3 1 2 1 1 1 3 2 2 3 4 5 4 10 16 16 17 16 14 12 9 8 13 15 17 19 19 17 16 17 17 17 18 23 28 30 32 36 37 39 40 40 40 41 43 44 44 44 44 43 43 42 42 42 42 43 43 42 42 42 41 39 37 35 35 36 36 36 35 33 31
1 2 3 5 7 5 4 6 4 6 8 5 3 5 5 2 1 2 0 2 1 2 3 2 3 2 2 4 9 12 13 16 17 16 14 12 10 12 13 15 17 17 16 16 17 17 18 19 24 30 31 32 35 36 37 38 37 39 40 40 41 42 43 43 43 42 41 42 42 41 41 42 42 42 41 40 39 37 36 37 37 37 38 37 36 34
2 3 2 6 7 5 2 3 3 3 6 6 6 7 6 4 1 0 0 2 1 2 2 1 3 1 4 3 8 9 11 14 18 19 17 15 14 12 14 14 14 16 16 17 17 17 18 19 24 31 33 33 34 34 35 36 37 38 39 39 40 41 40 41 42 42 42 42 41 40 40 40 41 41 40 38 38 37 38 37 36 37 38 38 37 36
2 2 1 4 5 4 2 4 3 1 2 5 6 6 5 4 3 2 2 3 2 2 0 2 2 4 3 3 7 8 8 12 17 18 16 17 19 13 13 15 14 15 17 17 17 18 17 17 22 28 31 31 31 32 34 36 36 37 37 38 39 39 40 41 42 43 42 41 41 41 41 40 40 40 40 38 37 37 38 37 37 36 36 36 37 36
1 2 3 2 2 3 5 4 4 3 4 7 7 5 4 4 5 4 1 4 3 2 2 1 1 5 2 5 9 8 7 9 14 17 16 17 21 17 9 15 16 14 15 15 15 16 15 16 21 25 27 29 30 31 33 35 36 36 38 38 38 39 40 42 43 43 42 41 41 42 41 40 39 39 39 39 38 38 38 38 37 36 35 35 35 35
2 2 3 2 3 4 5 4 4 6 6 5 5 6 5 4 3 1 2 2 2 2 3 3 1 4 3 8 10 9 9 9 12 18 19 17 19 22 13 8 14 13 14 13 12 13 12 14 18 20 22 25 28 30 32 34 35 36 37 37 38 39 41 41 41 41 40 40 40 40 40 39 38 38 38 38 38 39 39 38 37 37 36 35 34 33
2 1 3 3 3 5 6 5 5 6 6 3 3 6 5 5 6 4 1 1 1 1 4 2 2 5 7 10 10 10 13 12 12 16 18 17 18 21 20 11 3 4 7 10 11 11 11 13 14 15 18 23 26 28 31 32 34 35 36 37 38 38 39 40 40 39 39 39 39 38 38 38 38 37 37 38 38 39 39 38 37 36 36 36 35 34
2 2 2 4 3 1 0 2 3 4 5 3 4 7 7 6 7 4 3 4 1 1 4 1 4 7 11 13 12 12 14 14 14 15 16 17 19 19 20 18 15 12 8 3 3 6 9 11 12 14 18 23 26 28 30 31 33 34 35 36 37 37 38 38 38 38 38 38 38 38 38 38 38 38 38 38 38 38 38 37 36 36 35 36 35 35
3 3 2 5 5 3 4 4 4 3 3 4 7 9 7 6 6 4 3 2 1 2 5 3 4 6 14 15 14 13 13 13 13 15 14 14 17 18 18 17 17 16 15 13 11 7 4 2 6 10 14 19 23 26 28 30 31 32 33 34 35 36 36 37 38 37 37 37 37 38 38 39 39 39 38 39 38 38 37 37 37 36 36 35 35 35
4 3 2 4 3 4 5 5 4 2 1 4 7 8 8 7 6 4 1 2 2 3 5 6 3 6 11 12 12 12 13 12 12 14 13 11 14 15 15 18 19 19 18 17 17 16 13 9 4 2 7 12 16 19 22 25 28 30 31 33 34 34 35 36 36 37 37 37 37 37 38 39 39 39 39 38 38 37 37 36 36 36 36 35 34 34
5 1 1 3 1 3 3 3 2 1 2 3 4 7 8 8 7 4 3 5 2 1 5 9 8 8 8 8 8 9 10 11 11 12 11 10 13 15 16 18 19 19 19 18 18 17 16 15 12 7 2 5 11 15 17 19 22 25 27 29 31 33 34 35 36 36 36 36 37 38 38 38 38 38 37 37 37 37 37 36 36 36 36 35 35 35
4 0 0 3 2 2 2 3 3 3 3 4 5 6 7 7 7 6 5 6 5 5 7 9 11 9 5 4 6 6 7 8 8 10 11 13 14 15 16 17 17 17 18 17 16 16 15 15 14 13 12 9 3 5 11 16 19 23 25 27 29 31 33 35 35 36 36 36 37 38 38 37 37 36 36 36 36 36 36 36 36 35 35 35 35 35
3 1 1 4 4 4 4 4 4 4 3 4 5 6 6 6 6 5 4 4 4 5 6 8 9 7 4 4 6 6 6 8 10 12 13 13 13 14 15 16 17 16 16 16 15 15 15 15 14 14 15 16 16 11 3 6 14 20 22 24 26 29 32 34 35 36 37 37 37 37 37 36 36 36 36 36 36 36 36 36 36 36 35 35 35 35
3 1 2 5 3 4 4 6 6 6 6 5 5 6 5 3 3 3 4 5 4 4 5 6 5 4 5 7 7 6 7 10 11 11 11 10 12 14 14 15 15 16 16 16 15 14 15 15 14 14 15 17 18 18 16 9 2 12 18 21 23 25 28 31 33 34 35 36 36 36 36 36 36 36 36 36 36 36 36 36 35 36 35 35 35 35
3 3 1 3 2 3 4 4 5 6 6 5 4 2 1 2 4 5 5 5 4 2 3 4 3 3 6 8 8 8 7 9 9 8 9 9 10 12 12 13 13 14 14 15 15 13 13 13 13 15 18 19 19 19 18 17 11 1 10 18 21 23 25 28 30 32 33 33 34 35 35 36 35 35 36 36 37 36 36 36 36 36 36 36 35 35
3 4 2 2 3 2 5 4 4 4 3 4 3 1 1 3 4 3 4 4 3 3 2 3 4 5 7 8 9 8 6 7 6 6 7 7 8 9 11 11 11 12 13 14 16 14 12 13 15 18 20 21 21 21 19 18 17 13 3 9 17 20 21 21 23 24 27 30 33 34 35 35 35 36 36 36 36 36 36 36 36 36 36 36 35 35
3 3 2 2 3 1 3 4 4 2 4 4 5 4 4 3 3 3 5 3 3 6 5 6 7 7 7 7 7 7 3 5 6 7 8 8 7 7 8 8 9 11 11 12 14 15 15 17 19 22 23 22 23 23 21 20 20 18 12 2 10 17 19 19 19 19 19 22 27 31 34 35 35 35 36 36 36 36 36 36 36 36 36 35 35 35
4 3 2 2 2 0 1 2 1 4 4 4 6 5 4 2 2 3 4 2 4 6 5 6 6 6 7 7 7 8 4 4 5 7 8 9 8 7 7 7 8 9 9 10 12 14 17 21 22 23 24 24 24 22 21 22 22 20 17 11 2 10 16 19 21 22 22 20 21 24 28 32 35 35 35 35 36 36 35 35 36 36 36 35 34 34
5 3 1 1 1 1 1 2 2 4 6 5 3 3 4 3 2 3 3 3 3 5 5 5 6 6 7 7 7 11 8 3 3 5 7 8 9 8 6 7 8 8 9 12 14 15 17 20 21 23 25 26 26 24 23 25 24 20 18 15 9 2 8 16 20 22 24 24 24 24 24 27 31 34 35 35 35 35 36 36 36 36 36 35 34 34
4 2 3 2 1 2 2 2 3 3 3 3 3 2 2 3 4 1 1 2 2 5 6 6 6 6 7 7 8 10 8 1 1 5 6 7 8 9 9 9 10 11 11 14 16 17 17 19 20 21 23 23 24 25 25 25 23 19 18 17 14 10 4 7 12 14 17 20 24 25 24 25 28 31 33 35 35 36 36 36 36 37 37 36 36 35
5 3 3 3 1 2 3 2 2 2 4 5 4 4 5 4 3 1 1 2 1 5 7 7 7 7 6 7 8 7 5 2 2 4 6 6 6 7 9 10 12 14 14 14 16 17 18 19 19 19 20 19 21 23 22 22 21 17 16 17 17 13 8 6 6 7 10 13 16 20 23 25 28 31 33 35 36 36 36 37 37 37 37 37 36 36
5 3 3 2 2 3 3 3 3 2 4 4 4 5 7 5 1 1 3 3 1 5 7 6 8 7 5 5 6 4 3 2 3 5 7 7 6 6 8 11 12 14 15 15 16 18 19 19 18 17 18 20 22 22 20 19 19 15 14 15 16 14 10 10 9 8 9 10 12 16 20 23 29 35 36 36 37 37 36 37 36 36 36 35 35 35
2 1 1 2 3 4 4 3 3 3 3 4 4 5 6 4 1 2 4 3 3 7 7 5 8 9 6 5 4 2 2 2 4 6 7 7 7 6 7 11 14 15 17 17 17 19 19 19 18 16 16 19 22 22 21 18 16 14 13 12 12 13 15 17 17 15 12 11 12 15 17 20 29 37 39 38 38 37 36 36 36 35 36 35 35 34
0 1 0 2 2 2 2 2 3 4 2 2 2 5 3 0 2 3 2 2 4 6 6 6 7 8 7 6 5 5 5 5 5 6 7 7 7 7 7 10 13 15 18 20 20 18 17 17 17 16 16 17 19 20 20 18 15 13 12 11 11 14 17 20 20 19 17 14 13 14 14 17 26 35 38 38 38 37 36 36 36 35 36 35 34 33
3 1 1 2 2 1 1 1 3 3 2 1 2 4 1 2 3 3 4 3 3 5 6 6 6 6 7 8 7 8 9 8 6 6 7 6 7 7 8 9 11 13 15 18 19 18 16 15 16 16 16 16 17 18 18 16 15 13 12 11 12 15 18 20 20 21 19 16 15 15 15 16 22 31 35 35 36 37 37 36 36 35 35 34 33 33
3 3 2 2 2 2 2 3 4 3 4 3 2 1 3 4 3 4 4 3 3 4 5 5 5 6 6 8 9 10 11 10 7 6 7 7 7 7 8 9 11 14 14 15 17 19 18 15 15 17 18 17 18 19 17 15 14 14 13 14 16 16 17 18 20 21 19 16 16 17 16 16 21 28 33 35 36 37 36 35 35 35 34 34 33 31
4 4 3 3 3 3 4 6 5 3 3 3 3 4 5 6 5 4 3 3 3 3 4 5 7 8 7 7 9 9 9 10 9 7 7 8 7 7 8 9 11 14 14 14 15 17 17 17 15 16 17 18 19 20 19 16 14 13 14 17 18 16 16 17 18 19 19 17 16 17 17 17 19 25 31 35 36 36 36 35 34 33 33 33 33 31
3 3 4 2 2 3 4 6 6 5 4 3 3 4 5 5 4 2 2 3 3 4 5 6 8 9 9 8 8 8 8 10 11 8 7 8 8 8 9 10 12 14 15 13 13 15 17 18 16 15 15 17 19 21 20 18 16 14 17 20 20 17 17 17 18 18 17 17 18 19 18 17 18 23 30 34 36 37 37 36 34 33 33 33 33 33
2 2 3 2 1 2 3 4 4 4 4 4 4 5 5 5 4 2 2 4 5 5 6 8 9 10 10 10 9 8 8 9 11 10 7 6 8 9 9 10 11 13 14 13 12 13 15 16 16 16 16 16 19 22 21 20 18 17 19 21 20 19 18 18 18 17 17 17 19 19 18 17 17 20 27 32 35 35 35 35 35 33 32 32 32 31
2 3 3 3 4 3 5 6 4 4 6 6 5 5 5 4 4 4 4 5 5 7 8 9 10 9 9 10 9 9 9 9 10 11 8 6 7 9 10 11 12 13 14 13 12 12 12 13 14 16 17 16 19 22 23 21 20 21 21 21 20 19 18 17 17 17 17 18 18 18 18 18 16 17 23 29 31 33 33 33 34 33 33 35 36 33
4 4 3 3 3 3 7 8 4 4 6 6 4 4 4 3 4 6 6 6 7 8 8 10 11 10 10 11 11 10 11 10 9 10 11 8 6 8 12 15 15 15 15 13 12 12 12 11 11 14 15 17 18 20 21 21 21 22 23 21 20 19 18 17 16 16 17 17 18 18 19 20 18 14 19 25 28 31 34 35 37 37 38 40 42 41
4 4 3 2 2 4 7 6 3 2 5 5 4 5 4 4 4 6 7 7 7 8 8 9 11 12 13 15 14 11 10 10 9 10 11 10 8 10 15 18 17 16 15 13 12 13 13 11 10 12 14 16 18 19 20 20 20 22 23 22 20 20 18 17 15 15 15 16 17 18 20 22 21 16 16 22 25 27 31 33 36 39 39 39 41 44
6 6 6 6 5 7 8 7 5 4 4 6 5 5 4 4 4 6 8 8 8 8 9 9 10 11 11 14 17 15 11 11 12 12 10 12 14 16 17 20 20 18 16 14 12 13 14 12 11 12 13 15 17 18 19 19 19 20 22 22 21 21 19 16 15 14 14 16 16 17 19 21 21 18 14 19 25 26 26 28 32 36 39 39 38 39
Wind_Direction
155 184 239 223 223 218 216 181 190 225 230 247 287 269 262 280 272 222 259 232 176 188 220 212 216 217 203 188 181 177 179 187 188 186 189 188 187 186 183 187 189 193 192 184 179 180 185 186 186 187 188 188 189 190 191 191 192 193 193 194 197 201 203 202 205 209 209 207 207 209 211 213 215 216 216 213 211 211 208 203 198 192 188 187 188 190
142 202 237 232 221 221 226 200 198 241 263 272 262 277 282 258 262 251 251 237 186 195 227 218 223 226 211 194 181 175 180 189 190 186 189 190 189 189 187 187 189 192 190 186 182 179 183 185 185 186 188 188 189 189 190 191 192 193 194 194 195 199 201 203 206 209 210 206 204 205 207 210 210 209 211 210 208 208 206 204 202 196 192 190 189 191
190 234 245 243 227 221 249 234 212 237 257 266 259 282 286 240 285 288 273 251 180 192 232 211 216 231 215 197 186 183 187 193 192 188 189 188 187 190 191 188 187 188 187 189 188 181 181 183 184 185 187 189 189 189 191 193 193 193 194 194 194 197 200 204 207 210 209 205 204 206 208 207 206 208 213 214 210 207 206 205 203 201 199 197 195 194
206 250 239 238 233 211 252 260 237 250 265 258 249 267 268 207 94 296 292 340 154 200 227 185 200 224 188 196 199 195 196 194 191 191 190 188 189 191 192 189 187 188 188 189 190 185 181 182 183 185 187 189 189 190 191 193 192 192 194 195 194 196 200 203 207 210 207 204 205 208 209 207 207 211 215 214 213 211 211 209 207 206 204 203 202 201
228 245 225 217 214 200 239 270 255 239 262 256 232 231 255 243 143 216 270 347 4 242 236 124 116 252 179 191 205 199 202 200 190 189 191 195 196 192 191 193 192 190 190 189 189 188 182 181 184 185 186 187 189 191 192 192 193 193 195 195 195 197 200 202 206 206 204 202 204 206 208 206 206 211 212 210 211 213 214 214 211 210 209 207 205 205
243 242 188 187 210 194 214 256 237 197 233 274 239 217 235 245 216 232 260 342 351 287 232 144 156 272 203 189 198 190 197 202 193 191 192 195 197 193 192 195 197 195 193 192 191 189 184 182 184 186 186 186 189 192 193 193 194 195 196 196 197 198 199 202 204 203 201 202 204 204 204 202 200 203 207 209 212 213 214 216 216 214 212 210 207 208
251 239 159 190 218 194 203 243 228 177 190 270 240 203 214 224 232 249 254 199 276 279 244 157 171 262 238 199 198 188 193 198 197 200 198 195 196 196 195 194 196 196 195 195 195 192 186 183 184 186 187 187 190 193 193 193 195 196 196 196 197 199 200 201 202 202 201 203 205 206 206 204 202 203 208 213 216 216 216 217 218 217 216 213 210 209
258 323 164 188 205 187 201 244 225 172 167 251 236 182 182 196 219 240 226 189 222 249 312 4 127 123 253 218 184 171 185 198 206 210 204 200 198 197 197 196 195 195 194 194 194 194 189 185 186 188 188 189 191 192 192 193 194 196 196 197 197 199 200 201 201 201 203 203 204 207 208 207 206 207 210 213 216 219 220 219 219 219 219 216 213 212
283 64 173 160 161 188 203 230 221 169 175 248 243 200 176 182 204 216 195 198 225 182 277 302 120 125 273 253 131 155 188 204 214 213 206 203 201 198 197 197 196 195 194 194 194 195 193 189 188 189 189 190 191 191 191 192 194 196 197 197 197 198 200 201 201 201 203 204 204 206 207 208 210 211 212 213 215 219 221 221 221 221 221 220 217 215
261 203 196 144 146 203 220 238 221 170 198 244 242 209 196 182 205 208 182 193 129 128 228 246 195 164 276 245 140 165 204 214 218 214 207 206 203 199 197 196 196 195 194 195 195 196 196 194 191 189 189 190 191 191 192 193 194 195 196 196 197 198 199 200 201 201 202 203 204 206 208 209 211 213 214 215 216 217 219 222 223 222 222 221 219 217
285 272 213 97 144 227 236 250 220 194 220 242 256 224 244 237 200 199 69 119 118 214 242 226 198 186 263 255 180 190 210 213 215 211 206 209 208 203 198 194 194 195 195 195 195 196 198 196 192 189 189 189 190 191 192 193 193 194 195 195 197 199 199 200 201 201 202 203 205 207 209 210 211 213 214 214 214 214 216 220 222 223 222 222 221 220
339 354 358 350 12 9 324 310 300 263 246 238 121 140 241 314 9 57 8 61 148 249 258 217 187 179 225 255 215 212 218 215 211 207 203 205 208 206 200 196 194 194 196 195 194 195 195 195 190 188 190 190 189 190 191 192 193 193 194 195 197 199 199 199 200 201 202 203 205 208 209 211 212 213 214 214 214 213 215 218 220 221 221 222 223 222
13 11 333 306 32 34 22 354 340 341 20 46 76 106 125 298 355 116 288 207 182 248 256 178 141 165 234 250 230 223 226 223 217 211 205 203 204 203 200 197 194 195 196 195 195 194 192 192 189 188 190 189 189 189 190 191 192 193 195 196 196 198 199 199 200 201 202 203 205 207 209 212 214 215 216 217 216 214 215 217 217 218 219 220 221 222
355 319 352 1 3 15 35 42 352 326 357 7 124 126 140 165 124 211 244 245 194 245 260 188 135 191 261 267 240 227 228 225 220 216 208 203 201 199 197 194 193 196 197 197 196 195 193 192 190 190 190 190 190 190 190 190 191 192 194 196 197 198 199 199 200 201 202 204 206 207 209 212 214 216 217 219 218 217 217 217 217 218 219 220 221 221
88 265 355 12 327 338 26 43 246 236 287 297 207 145 141 154 144 201 210 176 202 235 293 314 182 185 199 249 251 245 248 235 227 225 211 203 201 195 191 190 192 196 198 198 198 197 197 193 191 191 190 191 192 191 191 191 191 192 194 196 197 199 199 199 200 201 203 205 207 208 210 212 214 216 218 219 220 220 218 219 220 221 222 224 225 226
86 219 296 321 284 358 6 315 280 205 233 279 284 95 48 169 151 209 195 171 170 137 1 269 213 212 206 280 336 335 319 287 251 238 213 200 195 186 185 191 194 197 197 198 199 199 198 195 193 192 192 193 193 192 192 192 192 192 194 196 198 199 199 199 200 201 203 206 207 209 211 212 214 217 218 219 221 223 222 223 224 225 227 228 230 232
37 262 306 338 343 359 349 302 31 52 228 277 33 8 269 230 155 179 253 199 97 113 260 227 221 291 288 10 1 358 353 347 336 295 236 208 187 179 189 195 196 197 196 198 198 198 198 195 195 194 193 193 193 193 194 194 194 193 194 195 197 199 199 200 201 202 204 205 207 209 211 212 214 216 218 219 220 223 225 227 228 229 231 232 234 236
16 263 321 12 352 329 329 321 58 48 22 51 52 295 289 274 125 125 197 3 62 132 269 234 148 349 359 7 348 355 356 349 348 341 306 255 199 189 195 196 196 198 197 197 197 196 197 196 196 196 196 195 194 195 196 196 196 195 195 196 197 198 199 200 201 202 204 205 206 209 211 212 214 216 217 219 220 222 225 228 229 230 231 232 234 236
22 284 303 6 352 311 344 13 28 10 8 44 213 299 352 77 53 3 102 141 114 153 262 280 125 52 14 346 342 350 346 337 339 343 335 311 247 213 203 198 198 198 196 195 196 196 197 196 196 196 196 197 196 197 198 197 196 196 197 198 198 199 200 201 202 203 204 205 206 209 211 212 214 216 218 219 220 222 224 227 229 230 230 231 232 234
25 57 284 326 343 331 13 29 8 333 346 9 21 4 19 99 137 322 144 153 150 156 211 275 46 49 312 335 346 337 333 340 342 339 336 323 287 245 220 207 200 197 196 196 196 197 197 197 197 196 196 196 196 197 197 197 197 198 199 199 200 200 201 201 202 203 205 206 208 209 211 213 214 216 218 219 220 221 223 226 228 229 230 230 231 233
27 60 286 309 343 6 24 10 354 320 338 7 33 27 6 348 354 279 9 37 75 126 177 122 65 254 245 355 352 331 340 355 353 343 333 324 308 269 233 217 205 200 198 197 198 197 197 197 196 196 197 197 196 196 196 196 197 199 199 199 200 201 200 201 202 204 205 207 208 210 211 213 214 216 217 219 220 221 222 224 226 228 229 229 230 232
20 51 6 333 354 17 308 305 323 301 35 55 54 32 3 352 20 55 1 345 31 78 42 122 132 244 241 26 349 337 1 7 360 348 334 329 327 301 241 216 206 205 204 199 198 196 195 196 194 194 196 196 195 194 194 196 197 198 199 200 201 201 201 202 203 204 206 207 208 210 212 213 214 216 217 219 220 222 223 224 225 227 228 229 230 232
36 75 49 359 317 297 274 294 21 70 99 78 62 35 6 9 41 62 325 310 340 3 339 58 171 226 215 18 352 349 6 10 10 1 346 340 339 330 273 216 204 204 208 205 201 197 194 193 191 191 193 194 194 194 193 195 197 198 199 200 200 201 202 203 204 205 206 207 208 211 212 213 215 216 217 218 220 223 225 226 226 227 227 229 231 232
23 52 35 347 307 317 300 301 29 57 67 55 29 18 9 356 8 4 224 249 318 357 17 29 292 244 296 353 351 356 354 356 19 15 4 354 348 350 342 238 207 203 204 203 203 202 197 191 188 187 189 191 193 194 194 195 197 198 200 200 200 202 203 203 204 205 206 207 209 211 212 213 214 215 217 218 220 223 225 226 227 228 228 230 231 233
8 37 53 35 5 358 350 338 346 19 40 39 328 347 351 340 348 343 312 46 46 51 56 72 249 271 311 333 342 0 1 353 9 20 16 10 359 357 2 360 313 248 214 200 199 201 195 189 187 187 188 190 192 194 194 195 197 198 199 200 201 202 203 204 204 205 206 207 209 210 212 213 214 214 216 218 221 223 225 226 226 227 229 231 233 234
76 66 87 94 92 108 332 325 305 326 354 344 324 342 341 342 357 1 17 29 39 349 15 118 219 286 310 326 339 359 8 358 357 10 18 18 9 1 5 13 13 9 5 341 233 212 202 193 192 193 190 189 191 194 195 195 197 199 200 201 201 202 203 203 204 205 206 207 208 210 212 212 213 214 216 218 220 223 225 226 226 226 227 230 232 234
98 49 83 124 133 170 187 210 256 297 331 319 328 340 338 339 356 21 45 32 224 334 336 227 196 309 316 325 339 352 4 0 354 1 10 19 16 4 1 9 15 20 19 15 14 6 339 236 207 202 197 195 193 194 196 196 196 198 199 201 202 202 202 203 204 205 206 207 208 210 211 212 214 215 216 218 220 222 224 225 226 227 227 228 230 232
89 37 59 117 152 199 193 218 257 270 267 301 321 330 331 331 339 4 46 247 270 3 316 263 260 319 307 314 337 350 357 357 354 355 358 18 21 6 0 6 12 16 17 18 21 18 10 5 352 193 188 197 199 199 200 201 200 199 199 200 200 201 202 202 203 205 206 208 209 211 212 213 214 215 217 218 220 221 223 225 226 227 227 228 228 230
100 91 130 105 137 225 220 247 282 341 294 306 316 313 320 325 324 322 265 255 274 248 257 274 293 298 290 307 343 2 1 357 357 351 350 15 22 10 5 8 10 11 11 14 17 16 13 9 5 11 65 177 192 200 203 203 204 203 202 202 201 200 201 202 203 205 206 208 210 212 213 214 215 216 217 218 219 220 222 224 226 227 227 228 228 229
102 60 48 83 54 327 316 331 17 35 347 317 306 295 302 305 300 296 272 262 264 244 247 270 284 281 276 311 356 21 8 357 6 8 9 19 20 13 11 10 8 6 6 8 10 10 10 9 5 7 14 21 33 198 201 201 204 204 204 204 202 201 202 201 202 204 206 208 210 212 213 214 215 216 217 217 219 220 221 222 224 226 227 228 229 230
83 12 17 71 40 327 331 357 6 4 326 297 286 275 282 298 305 308 299 287 284 271 266 275 282 285 301 343 8 27 19 14 22 20 19 19 15 13 14 11 7 3 360 1 2 5 7 5 4 6 9 9 10 14 26 203 205 205 207 206 203 203 202 201 202 204 206 208 211 212 213 213 214 215 216 217 218 219 221 222 222 224 226 227 229 230
93 26 8 67 53 302 320 358 347 336 329 305 275 253 253 289 324 320 308 294 286 286 287 285 292 309 325 343 5 21 27 32 29 20 18 15 14 16 14 10 7 0 354 352 353 359 4 2 1 1 359 357 1 9 15 14 215 202 207 208 206 205 203 202 204 205 207 209 210 211 212 213 214 214 215 216 218 219 220 221 222 222 223 225 227 229
130 112 87 94 86 282 296 339 344 346 346 315 270 205 148 335 322 320 317 305 307 335 307 287 299 333 332 347 3 9 26 39 31 22 19 8 10 19 13 7 5 358 352 347 344 353 1 358 357 357 352 350 353 359 6 13 17 7 207 206 206 204 202 204 206 207 209 210 210 211 212 212 213 214 215 216 217 218 220 220 220 221 222 223 225 226
130 111 137 142 112 264 279 322 0 357 330 271 255 157 31 300 292 297 296 298 344 15 343 318 345 355 353 359 360 358 28 52 35 27 28 9 7 18 12 4 358 352 352 347 339 345 356 353 351 353 350 348 349 352 357 6 9 8 348 203 200 198 197 200 205 209 212 212 212 212 212 212 213 213 215 216 217 218 218 218 220 221 222 223 223 224
122 112 142 130 115 224 291 15 16 283 241 267 304 312 290 255 206 239 264 266 23 16 2 1 359 356 360 359 348 343 22 94 66 40 30 12 6 12 6 357 354 350 349 344 338 341 348 349 349 349 346 344 346 347 350 357 3 2 359 321 197 195 193 191 193 201 210 217 219 217 213 212 212 213 215 215 216 217 217 218 219 220 221 222 222 223
133 133 147 126 124 144 33 76 196 248 267 319 337 340 344 3 42 353 307 312 33 20 7 1 352 348 353 351 344 335 306 160 107 50 30 11 1 4 358 345 348 348 340 336 337 339 340 341 342 342 339 339 344 344 345 351 358 359 357 352 259 200 199 197 196 197 201 211 223 226 223 218 213 212 215 215 215 216 216 217 219 220 221 221 222 223
133 130 127 164 177 136 138 209 253 314 329 337 347 1 8 353 336 349 324 295 0 17 3 348 344 348 350 347 348 338 312 215 124 34 24 12 352 344 340 332 334 339 336 335 335 333 334 336 339 341 340 340 342 343 344 348 352 358 0 354 346 299 207 208 209 208 205 205 210 218 228 230 222 215 214 215 215 215 216 217 218 219 219 219 220 221
103 131 151 166 184 125 126 261 306 331 305 262 236 266 316 288 262 273 302 273 331 5 354 342 338 342 348 348 348 343 332 299 70 356 357 2 348 336 332 329 332 336 336 333 328 328 334 339 341 344 346 342 340 343 346 344 345 355 4 355 344 344 310 235 229 228 224 217 211 210 217 230 234 225 217 215 216 216 217 217 217 218 219 218 218 219
51 56 111 121 135 122 133 209 234 229 243 239 241 272 300 289 238 189 292 262 302 351 344 337 332 334 346 346 345 354 7 26 4 326 326 336 337 331 326 327 334 338 335 332 330 329 334 340 341 345 349 344 339 341 344 342 340 350 5 357 339 331 326 308 288 273 263 248 230 218 214 219 231 232 224 219 219 219 218 218 218 218 218 218 219 220
34 33 70 109 199 188 182 221 226 227 241 232 234 281 304 313 335 329 283 265 326 339 328 325 324 323 330 333 337 3 32 359 313 301 310 318 316 315 324 327 331 331 327 330 334 333 336 342 343 345 348 344 338 339 344 346 343 348 4 359 338 328 338 343 337 326 304 284 261 241 226 218 223 229 227 223 222 222 220 219 218 218 217 218 219 220
9 21 101 158 204 219 219 233 259 261 236 209 226 272 297 325 350 235 239 255 318 318 312 316 315 312 315 323 324 325 309 286 282 287 299 312 313 310 323 327 326 325 324 329 335 337 339 343 341 339 341 341 340 342 346 348 349 349 357 359 342 336 344 344 339 335 327 312 291 270 251 231 224 225 225 224 223 223 222 220 218 217 216 216 217 218
353 14 175 157 178 219 203 207 277 279 235 180 258 286 294 178 206 232 249 282 291 298 309 317 309 306 314 317 306 296 293 287 290 298 301 311 317 313 317 323 325 327 330 333 336 339 341 340 334 331 337 341 341 343 345 347 350 348 346 349 345 337 336 336 334 331 328 325 317 301 281 252 234 227 225 224 222 220 221 220 218 217 216 215 215 216
167 154 256 206 178 148 122 190 267 267 223 120 19 344 326 185 222 290 319 298 270 296 313 311 304 309 318 317 311 306 304 300 301 302 298 303 311 311 312 316 316 319 325 328 330 333 338 336 328 327 334 339 340 342 347 349 345 341 340 339 337 335 334 334 333 328 326 328 328 320 304 275 248 232 225 223 220 219 219 218 216 216 215 214 214 215
185 165 200 229 192 134 152 214 229 206 186 161 105 191 239 248 275 298 300 289 292 311 307 300 302 304 306 310 310 308 306 305 305 302 299 299 304 309 311 310 309 312 316 319 322 329 335 330 324 327 331 335 339 341 345 351 344 336 335 333 330 333 336 334 331 327 326 327 326 321 311 289 260 238 227 223 220 218 217 216 214 213 213 213 213 213
217 181 171 205 212 186 196 219 228 211 200 194 180 202 238 268 281 271 265 278 292 294 295 299 300 300 301 302 302 302 302 304 307 308 301 295 292 299 303 300 298 302 307 313 318 326 330 323 320 327 329 332 340 341 341 347 346 334 330 331 332 333 335 332 329 328 326 323 320 317 311 295 270 244 229 222 219 216 215 213 211 210 211 211 211 212
226 167 143 169 253 277 259 243 239 250 263 249 216 220 243 258 261 254 266 279 274 272 284 288 287 291 297 295 293 293 294 299 304 306 302 295 291 292 295 293 291 293 300 310 315 322 329 324 318 323 326 330 339 343 341 342 346 341 335 334 337 340 338 336 335 331 322 316 314 313 312 301 275 248 231 222 217 216 215 212 209 208 209 209 210 213
263 164 151 171 214 284 272 243 212 214 245 255 258 266 265 252 245 248 256 264 269 270 274 279 282 287 288 285 283 284 285 292 298 300 301 295 290 290 290 289 288 287 292 303 308 314 325 325 318 321 326 329 337 343 341 340 345 348 344 342 345 349 345 339 336 328 316 312 312 312 313 307 284 251 231 220 216 214 214 212 211 209 208 208 209 212
209 159 171 194 189 206 253 258 249 247 256 257 259 264 263 254 264 278 273 268 275 275 273 274 276 280 283 282 281 282 283 284 287 291 294 290 285 288 288 285 284 282 285 297 304 306 315 321 318 321 324 327 335 339 338 338 343 348 349 351 355 353 343 334 330 322 313 311 312 311 314 316 301 261 231 219 214 212 211 210 210 210 211 211 211 211
145 151 178 197 197 259 281 279 285 293 283 266 235 222 229 249 273 286 290 287 283 280 278 276 272 270 274 279 283 284 282 278 275 283 290 287 280 283 284 285 287 282 280 290 301 301 303 311 317 320 322 327 334 335 334 337 345 348 349 351 354 352 341 331 326 320 315 315 316 316 321 327 323 288 242 223 216 214 213 212 211 212 215 217 217 215
154 177 180 147 179 254 261 248 210 232 271 263 230 212 228 253 271 283 290 291 284 281 283 284 280 274 270 273 275 276 277 276 272 275 281 282 277 275 279 285 288 283 277 281 292 297 298 303 315 323 327 333 336 333 330 335 343 349 353 354 352 348 342 334 327 321 319 320 319 318 321 327 331 316 263 233 221 217 217 217 216 216 218 221 222 222
183 189 177 177 208 232 235 222 186 182 240 255 242 225 231 245 264 280 286 286 283 282 281 281 282 280 274 272 272 270 269 271 270 267 269 275 274 271 273 278 281 279 276 277 283 292 296 303 317 327 332 339 340 333 328 329 335 346 355 359 354 347 340 336 331 325 323 323 318 315 318 319 324 325 294 247 227 219 217 217 217 219 221 223 225 225